Year,Month,Day,Hour,Minute,Value (Times are PST for temperature in C)
2010,04,10,00,00,1.80
2010,04,10,00,01,1.80
2010,04,10,00,02,1.80
2010,04,10,00,03,1.80
2010,04,10,00,04,1.80
2010,04,10,00,05,1.70
2010,04,10,00,06,1.70
2010,04,10,00,07,1.70
2010,04,10,00,08,1.70
2010,04,10,00,09,1.70
2010,04,10,00,10,1.70
2010,04,10,00,11,1.70
2010,04,10,00,12,1.60
2010,04,10,00,13,1.60
2010,04,10,00,14,1.60
2010,04,10,00,15,1.60
2010,04,10,00,16,1.60
2010,04,10,00,17,1.60
2010,04,10,00,18,1.60
2010,04,10,00,19,1.60
2010,04,10,00,20,1.50
2010,04,10,00,21,1.50
2010,04,10,00,22,1.50
2010,04,10,00,23,1.50
2010,04,10,00,24,1.50
2010,04,10,00,25,1.40
2010,04,10,00,26,1.40
2010,04,10,00,27,1.40
2010,04,10,00,28,1.40
2010,04,10,00,29,1.40
2010,04,10,00,30,1.40
2010,04,10,00,31,1.40
2010,04,10,00,32,1.40
2010,04,10,00,33,1.40
2010,04,10,00,34,1.40
2010,04,10,00,35,1.40
2010,04,10,00,36,1.40
2010,04,10,00,37,1.40
2010,04,10,00,38,1.40
2010,04,10,00,39,1.40
2010,04,10,00,40,1.40
2010,04,10,00,41,1.30
2010,04,10,00,42,1.30
2010,04,10,00,43,1.30
2010,04,10,00,44,1.30
2010,04,10,00,45,1.30
2010,04,10,00,46,1.30
2010,04,10,00,47,1.30
2010,04,10,00,48,1.30
2010,04,10,00,49,1.30
2010,04,10,00,50,1.30
2010,04,10,00,51,1.30
2010,04,10,00,52,1.30
2010,04,10,00,53,1.30
2010,04,10,00,54,1.30
2010,04,10,00,55,1.30
2010,04,10,00,56,1.30
2010,04,10,00,57,1.30
2010,04,10,00,58,1.30
2010,04,10,00,59,1.30
2010,04,10,01,00,1.30
2010,04,10,01,01,1.30
2010,04,10,01,02,1.30
2010,04,10,01,03,1.30
2010,04,10,01,04,1.30
2010,04,10,01,05,1.30
2010,04,10,01,06,1.30
2010,04,10,01,07,1.30
2010,04,10,01,08,1.20
2010,04,10,01,09,1.20
2010,04,10,01,10,1.20
2010,04,10,01,11,1.20
2010,04,10,01,12,1.10
2010,04,10,01,13,1.10
2010,04,10,01,14,1.10
2010,04,10,01,15,1.10
2010,04,10,01,16,1.00
2010,04,10,01,17,1.00
2010,04,10,01,18,1.00
2010,04,10,01,19,1.00
2010,04,10,01,20,1.00
2010,04,10,01,21,1.00
2010,04,10,01,22,1.00
2010,04,10,01,23,1.00
2010,04,10,01,24,1.00
2010,04,10,01,25,1.00
2010,04,10,01,26,1.00
2010,04,10,01,27,1.00
2010,04,10,01,28,1.00
2010,04,10,01,29,1.00
2010,04,10,01,30,1.00
2010,04,10,01,31,1.00
2010,04,10,01,32,1.00
2010,04,10,01,33,1.00
2010,04,10,01,34,1.00
2010,04,10,01,35,1.00
2010,04,10,01,36,1.00
2010,04,10,01,37,1.00
2010,04,10,01,38,1.00
2010,04,10,01,39,1.00
2010,04,10,01,40,1.00
2010,04,10,01,41,1.10
2010,04,10,01,42,1.00
2010,04,10,01,43,1.10
2010,04,10,01,44,1.00
2010,04,10,01,45,1.00
2010,04,10,01,46,1.00
2010,04,10,01,47,1.00
2010,04,10,01,48,1.00
2010,04,10,01,49,1.00
2010,04,10,01,50,1.00
2010,04,10,01,51,1.00
2010,04,10,01,52,1.00
2010,04,10,01,53,1.00
2010,04,10,01,54,1.00
2010,04,10,01,55,1.00
2010,04,10,01,56,1.00
2010,04,10,01,57,1.00
2010,04,10,01,58,1.00
2010,04,10,01,59,1.00
2010,04,10,02,00,1.00
2010,04,10,02,01,0.90
2010,04,10,02,02,0.90
2010,04,10,02,03,0.90
2010,04,10,02,04,0.90
2010,04,10,02,05,0.80
2010,04,10,02,06,0.80
2010,04,10,02,07,0.80
2010,04,10,02,08,0.80
2010,04,10,02,09,0.80
2010,04,10,02,10,0.80
2010,04,10,02,11,0.80
2010,04,10,02,12,0.80
2010,04,10,02,13,0.80
2010,04,10,02,14,0.70
2010,04,10,02,15,0.70
2010,04,10,02,16,0.70
2010,04,10,02,17,0.70
2010,04,10,02,18,0.70
2010,04,10,02,19,0.60
2010,04,10,02,20,0.60
2010,04,10,02,21,0.60
2010,04,10,02,22,0.60
2010,04,10,02,23,0.60
2010,04,10,02,24,0.60
2010,04,10,02,25,0.60
2010,04,10,02,26,0.60
2010,04,10,02,27,0.50
2010,04,10,02,28,0.50
2010,04,10,02,29,0.60
2010,04,10,02,30,0.60
2010,04,10,02,31,0.60
2010,04,10,02,32,0.60
2010,04,10,02,33,0.60
2010,04,10,02,34,0.60
2010,04,10,02,35,0.70
2010,04,10,02,36,0.70
2010,04,10,02,37,0.70
2010,04,10,02,38,0.70
2010,04,10,02,39,0.70
2010,04,10,02,40,0.70
2010,04,10,02,41,0.70
2010,04,10,02,42,0.70
2010,04,10,02,43,0.70
2010,04,10,02,44,0.70
2010,04,10,02,45,0.70
2010,04,10,02,46,0.70
2010,04,10,02,47,0.70
2010,04,10,02,48,0.70
2010,04,10,02,49,0.70
2010,04,10,02,50,0.70
2010,04,10,02,51,0.70
2010,04,10,02,52,0.70
2010,04,10,02,53,0.70
2010,04,10,02,54,0.70
2010,04,10,02,55,0.70
2010,04,10,02,56,0.70
2010,04,10,02,57,0.70
2010,04,10,02,58,0.70
2010,04,10,02,59,0.70
2010,04,10,03,00,0.70
2010,04,10,03,01,0.70
2010,04,10,03,02,0.70
2010,04,10,03,03,0.70
2010,04,10,03,04,0.70
2010,04,10,03,05,0.70
2010,04,10,03,06,0.70
2010,04,10,03,07,0.70
2010,04,10,03,08,0.70
2010,04,10,03,09,0.80
2010,04,10,03,10,0.80
2010,04,10,03,11,0.80
2010,04,10,03,12,0.80
2010,04,10,03,13,0.80
2010,04,10,03,14,0.80
2010,04,10,03,15,0.80
2010,04,10,03,16,0.80
2010,04,10,03,17,0.80
2010,04,10,03,18,0.90
2010,04,10,03,19,0.90
2010,04,10,03,20,0.90
2010,04,10,03,21,0.90
2010,04,10,03,22,1.00
2010,04,10,03,23,1.00
2010,04,10,03,24,1.00
2010,04,10,03,25,1.10
2010,04,10,03,26,1.10
2010,04,10,03,27,1.10
2010,04,10,03,28,1.10
2010,04,10,03,29,1.10
2010,04,10,03,30,1.10
2010,04,10,03,31,1.10
2010,04,10,03,32,1.20
2010,04,10,03,33,1.20
2010,04,10,03,34,1.20
2010,04,10,03,35,1.20
2010,04,10,03,36,1.20
2010,04,10,03,37,1.20
2010,04,10,03,38,1.20
2010,04,10,03,39,1.20
2010,04,10,03,40,1.20
2010,04,10,03,41,1.20
2010,04,10,03,42,1.20
2010,04,10,03,43,1.10
2010,04,10,03,44,1.10
2010,04,10,03,45,1.00
2010,04,10,03,46,1.00
2010,04,10,03,47,1.00
2010,04,10,03,48,1.00
2010,04,10,03,49,0.90
2010,04,10,03,50,0.90
2010,04,10,03,51,0.90
2010,04,10,03,52,0.90
2010,04,10,03,53,0.80
2010,04,10,03,54,0.80
2010,04,10,03,55,0.80
2010,04,10,03,56,0.80
2010,04,10,03,57,0.90
2010,04,10,03,58,0.90
2010,04,10,03,59,0.90
2010,04,10,04,00,0.90
2010,04,10,04,01,0.90
2010,04,10,04,02,0.90
2010,04,10,04,03,0.90
2010,04,10,04,04,0.90
2010,04,10,04,05,0.90
2010,04,10,04,06,1.00
2010,04,10,04,07,1.00
2010,04,10,04,08,1.00
2010,04,10,04,09,1.00
2010,04,10,04,10,1.00
2010,04,10,04,11,1.00
2010,04,10,04,12,1.10
2010,04,10,04,13,1.10
2010,04,10,04,14,1.10
2010,04,10,04,15,1.10
2010,04,10,04,16,1.20
2010,04,10,04,17,1.20
2010,04,10,04,18,1.20
2010,04,10,04,19,1.20
2010,04,10,04,20,1.20
2010,04,10,04,21,1.30
2010,04,10,04,22,1.30
2010,04,10,04,23,1.30
2010,04,10,04,24,1.30
2010,04,10,04,25,1.30
2010,04,10,04,26,1.30
2010,04,10,04,27,1.30
2010,04,10,04,28,1.40
2010,04,10,04,29,1.40
2010,04,10,04,30,1.40
2010,04,10,04,31,1.40
2010,04,10,04,32,1.40
2010,04,10,04,33,1.40
2010,04,10,04,34,1.40
2010,04,10,04,35,1.40
2010,04,10,04,36,1.40
2010,04,10,04,37,1.40
2010,04,10,04,38,1.30
2010,04,10,04,39,1.30
2010,04,10,04,40,1.40
2010,04,10,04,41,1.40
2010,04,10,04,42,1.50
2010,04,10,04,43,1.50
2010,04,10,04,44,1.60
2010,04,10,04,45,1.60
2010,04,10,04,46,1.60
2010,04,10,04,47,1.60
2010,04,10,04,48,1.60
2010,04,10,04,49,1.60
2010,04,10,04,50,1.60
2010,04,10,04,51,1.60
2010,04,10,04,52,1.60
2010,04,10,04,53,1.60
2010,04,10,04,54,1.60
2010,04,10,04,55,1.60
2010,04,10,04,56,1.70
2010,04,10,04,57,1.70
2010,04,10,04,58,1.70
2010,04,10,04,59,1.70
2010,04,10,05,00,1.70
2010,04,10,05,01,1.70
2010,04,10,05,02,1.70
2010,04,10,05,03,1.70
2010,04,10,05,04,1.70
2010,04,10,05,05,1.60
2010,04,10,05,06,1.60
2010,04,10,05,07,1.60
2010,04,10,05,08,1.60
2010,04,10,05,09,1.60
2010,04,10,05,10,1.60
2010,04,10,05,11,1.60
2010,04,10,05,12,1.60
2010,04,10,05,13,1.60
2010,04,10,05,14,1.60
2010,04,10,05,15,1.60
2010,04,10,05,16,1.60
2010,04,10,05,17,1.60
2010,04,10,05,18,1.60
2010,04,10,05,19,1.60
2010,04,10,05,20,1.60
2010,04,10,05,21,1.60
2010,04,10,05,22,1.60
2010,04,10,05,23,1.60
2010,04,10,05,24,1.60
2010,04,10,05,25,1.60
2010,04,10,05,26,1.60
2010,04,10,05,27,1.60
2010,04,10,05,28,1.60
2010,04,10,05,29,1.60
2010,04,10,05,30,1.60
2010,04,10,05,31,1.60
2010,04,10,05,32,1.60
2010,04,10,05,33,1.60
2010,04,10,05,34,1.60
2010,04,10,05,35,1.60
2010,04,10,05,36,1.50
2010,04,10,05,37,1.50
2010,04,10,05,38,1.50
2010,04,10,05,39,1.50
2010,04,10,05,40,1.50
2010,04,10,05,41,1.50
2010,04,10,05,42,1.50
2010,04,10,05,43,1.50
2010,04,10,05,44,1.40
2010,04,10,05,45,1.40
2010,04,10,05,46,1.40
2010,04,10,05,47,1.40
2010,04,10,05,48,1.30
2010,04,10,05,49,1.30
2010,04,10,05,50,1.30
2010,04,10,05,51,1.30
2010,04,10,05,52,1.30
2010,04,10,05,53,1.30
2010,04,10,05,54,1.30
2010,04,10,05,55,1.40
2010,04,10,05,56,1.40
2010,04,10,05,57,1.40
2010,04,10,05,58,1.40
2010,04,10,05,59,1.50
2010,04,10,06,00,1.50
2010,04,10,06,01,1.50
2010,04,10,06,02,1.50
2010,04,10,06,03,1.60
2010,04,10,06,04,1.60
2010,04,10,06,05,1.60
2010,04,10,06,06,1.60
2010,04,10,06,07,1.60
2010,04,10,06,08,1.50
2010,04,10,06,09,1.50
2010,04,10,06,10,1.50
2010,04,10,06,11,1.50
2010,04,10,06,12,1.50
2010,04,10,06,13,1.50
2010,04,10,06,14,1.50
2010,04,10,06,15,1.50
2010,04,10,06,16,1.50
2010,04,10,06,17,1.50
2010,04,10,06,18,1.50
2010,04,10,06,19,1.40
2010,04,10,06,20,1.40
2010,04,10,06,21,1.40
2010,04,10,06,22,1.40
2010,04,10,06,23,1.40
2010,04,10,06,24,1.40
2010,04,10,06,25,1.40
2010,04,10,06,26,1.40
2010,04,10,06,27,1.40
2010,04,10,06,28,1.40
2010,04,10,06,29,1.30
2010,04,10,06,30,1.30
2010,04,10,06,31,1.30
2010,04,10,06,32,1.30
2010,04,10,06,33,1.30
2010,04,10,06,34,1.30
2010,04,10,06,35,1.30
2010,04,10,06,36,1.30
2010,04,10,06,37,1.30
2010,04,10,06,38,1.30
2010,04,10,06,39,1.30
2010,04,10,06,40,1.30
2010,04,10,06,41,1.30
2010,04,10,06,42,1.30
2010,04,10,06,43,1.30
2010,04,10,06,44,1.30
2010,04,10,06,45,1.30
2010,04,10,06,46,1.20
2010,04,10,06,47,1.20
2010,04,10,06,48,1.20
2010,04,10,06,49,1.20
2010,04,10,06,50,1.20
2010,04,10,06,51,1.20
2010,04,10,06,52,1.10
2010,04,10,06,53,1.10
2010,04,10,06,54,1.10
2010,04,10,06,55,1.10
2010,04,10,06,56,1.10
2010,04,10,06,57,1.00
2010,04,10,06,58,1.00
2010,04,10,06,59,1.00
2010,04,10,07,00,1.00
2010,04,10,07,01,1.10
2010,04,10,07,02,1.10
2010,04,10,07,03,1.00
2010,04,10,07,04,1.00
2010,04,10,07,05,1.00
2010,04,10,07,06,1.00
2010,04,10,07,07,1.00
2010,04,10,07,08,1.00
2010,04,10,07,09,1.10
2010,04,10,07,10,1.10
2010,04,10,07,11,1.20
2010,04,10,07,12,1.20
2010,04,10,07,13,1.20
2010,04,10,07,14,1.20
2010,04,10,07,15,1.20
2010,04,10,07,16,1.30
2010,04,10,07,17,1.30
2010,04,10,07,18,1.30
2010,04,10,07,19,1.30
2010,04,10,07,20,1.30
2010,04,10,07,21,1.30
2010,04,10,07,22,1.30
2010,04,10,07,23,1.30
2010,04,10,07,24,1.40
2010,04,10,07,25,1.40
2010,04,10,07,26,1.50
2010,04,10,07,27,1.50
2010,04,10,07,28,1.60
2010,04,10,07,29,1.60
2010,04,10,07,30,1.60
2010,04,10,07,31,1.70
2010,04,10,07,32,1.80
2010,04,10,07,33,1.80
2010,04,10,07,34,1.80
2010,04,10,07,35,1.90
2010,04,10,07,36,1.90
2010,04,10,07,37,2.00
2010,04,10,07,38,2.00
2010,04,10,07,39,2.10
2010,04,10,07,40,2.10
2010,04,10,07,41,2.20
2010,04,10,07,42,2.20
2010,04,10,07,43,2.20
2010,04,10,07,44,2.20
2010,04,10,07,45,2.30
2010,04,10,07,46,2.40
2010,04,10,07,47,2.40
2010,04,10,07,48,2.50
2010,04,10,07,49,2.50
2010,04,10,07,50,2.60
2010,04,10,07,51,2.60
2010,04,10,07,52,2.70
2010,04,10,07,53,2.70
2010,04,10,07,54,2.70
2010,04,10,07,55,2.80
2010,04,10,07,56,2.90
2010,04,10,07,57,2.90
2010,04,10,07,58,2.90
2010,04,10,07,59,2.90
2010,04,10,08,00,3.10
2010,04,10,08,01,3.10
2010,04,10,08,02,3.10
2010,04,10,08,03,3.10
2010,04,10,08,04,3.20
2010,04,10,08,05,3.20
2010,04,10,08,06,3.20
2010,04,10,08,07,3.20
2010,04,10,08,08,3.30
2010,04,10,08,09,3.30
2010,04,10,08,10,3.30
2010,04,10,08,11,3.30
2010,04,10,08,12,3.30
2010,04,10,08,13,3.30
2010,04,10,08,14,3.30
2010,04,10,08,15,3.30
2010,04,10,08,16,3.40
2010,04,10,08,17,3.40
2010,04,10,08,18,3.40
2010,04,10,08,19,3.40
2010,04,10,08,20,3.50
2010,04,10,08,21,3.50
2010,04,10,08,22,3.60
2010,04,10,08,23,3.60
2010,04,10,08,24,3.70
2010,04,10,08,25,3.70
2010,04,10,08,26,3.80
2010,04,10,08,27,3.80
2010,04,10,08,28,3.80
2010,04,10,08,29,3.80
2010,04,10,08,30,3.80
2010,04,10,08,31,3.80
2010,04,10,08,32,3.90
2010,04,10,08,33,3.90
2010,04,10,08,34,4.00
2010,04,10,08,35,4.00
2010,04,10,08,36,4.10
2010,04,10,08,37,4.10
2010,04,10,08,38,4.10
2010,04,10,08,39,4.10
2010,04,10,08,40,4.10
2010,04,10,08,41,4.10
2010,04,10,08,42,4.10
2010,04,10,08,43,4.10
2010,04,10,08,44,4.20
2010,04,10,08,45,4.20
2010,04,10,08,46,4.30
2010,04,10,08,47,4.40
2010,04,10,08,48,4.40
2010,04,10,08,49,4.50
2010,04,10,08,50,4.50
2010,04,10,08,51,4.50
2010,04,10,08,52,4.50
2010,04,10,08,53,4.50
2010,04,10,08,54,4.50
2010,04,10,08,55,4.50
2010,04,10,08,56,4.60
2010,04,10,08,57,4.60
2010,04,10,08,58,4.60
2010,04,10,08,59,4.60
2010,04,10,09,00,4.60
2010,04,10,09,01,4.60
2010,04,10,09,02,4.70
2010,04,10,09,03,4.70
2010,04,10,09,04,4.80
2010,04,10,09,05,4.90
2010,04,10,09,06,4.90
2010,04,10,09,07,4.90
2010,04,10,09,08,4.90
2010,04,10,09,09,5.00
2010,04,10,09,10,5.10
2010,04,10,09,11,5.10
2010,04,10,09,12,5.20
2010,04,10,09,13,5.20
2010,04,10,09,14,5.30
2010,04,10,09,15,5.30
2010,04,10,09,16,5.30
2010,04,10,09,17,5.20
2010,04,10,09,18,5.20
2010,04,10,09,19,5.20
2010,04,10,09,20,5.20
2010,04,10,09,21,5.10
2010,04,10,09,22,5.10
2010,04,10,09,23,5.10
2010,04,10,09,24,5.20
2010,04,10,09,25,5.20
2010,04,10,09,26,5.30
2010,04,10,09,27,5.30
2010,04,10,09,28,5.40
2010,04,10,09,29,5.40
2010,04,10,09,30,5.50
2010,04,10,09,31,5.50
2010,04,10,09,32,5.50
2010,04,10,09,33,5.50
2010,04,10,09,34,5.50
2010,04,10,09,35,5.60
2010,04,10,09,36,5.60
2010,04,10,09,37,5.70
2010,04,10,09,38,5.70
2010,04,10,09,39,5.70
2010,04,10,09,40,5.70
2010,04,10,09,41,5.60
2010,04,10,09,42,5.60
2010,04,10,09,43,5.60
2010,04,10,09,44,5.70
2010,04,10,09,45,5.70
2010,04,10,09,46,5.80
2010,04,10,09,47,5.80
2010,04,10,09,48,5.90
2010,04,10,09,49,6.00
2010,04,10,09,50,6.10
2010,04,10,09,51,6.20
2010,04,10,09,52,6.20
2010,04,10,09,53,6.20
2010,04,10,09,54,6.20
2010,04,10,09,55,6.20
2010,04,10,09,56,6.20
2010,04,10,09,57,6.20
2010,04,10,09,58,6.20
2010,04,10,09,59,6.20
2010,04,10,10,00,6.20
2010,04,10,10,01,6.20
2010,04,10,10,02,6.20
2010,04,10,10,03,6.30
2010,04,10,10,04,6.40
2010,04,10,10,05,6.40
2010,04,10,10,06,6.40
2010,04,10,10,07,6.40
2010,04,10,10,08,6.50
2010,04,10,10,09,6.40
2010,04,10,10,10,6.50
2010,04,10,10,11,6.60
2010,04,10,10,12,6.60
2010,04,10,10,13,6.60
2010,04,10,10,14,6.60
2010,04,10,10,15,6.60
2010,04,10,10,16,6.60
2010,04,10,10,17,6.60
2010,04,10,10,18,6.60
2010,04,10,10,19,6.60
2010,04,10,10,20,6.60
2010,04,10,10,21,6.60
2010,04,10,10,22,6.60
2010,04,10,10,23,6.70
2010,04,10,10,24,6.70
2010,04,10,10,25,6.80
2010,04,10,10,26,6.80
2010,04,10,10,27,6.80
2010,04,10,10,28,6.80
2010,04,10,10,29,6.90
2010,04,10,10,30,6.90
2010,04,10,10,31,6.80
2010,04,10,10,32,6.80
2010,04,10,10,33,6.90
2010,04,10,10,34,6.90
2010,04,10,10,35,7.00
2010,04,10,10,36,7.00
2010,04,10,10,37,7.10
2010,04,10,10,38,7.10
2010,04,10,10,39,7.20
2010,04,10,10,40,7.20
2010,04,10,10,41,7.20
2010,04,10,10,42,7.10
2010,04,10,10,43,7.10
2010,04,10,10,44,7.20
2010,04,10,10,45,7.20
2010,04,10,10,46,7.20
2010,04,10,10,47,7.20
2010,04,10,10,48,7.20
2010,04,10,10,49,7.20
2010,04,10,10,50,7.30
2010,04,10,10,51,7.30
2010,04,10,10,52,7.40
2010,04,10,10,53,7.40
2010,04,10,10,54,7.40
2010,04,10,10,55,7.40
2010,04,10,10,56,7.40
2010,04,10,10,57,7.40
2010,04,10,10,58,7.40
2010,04,10,10,59,7.30
2010,04,10,11,00,7.30
2010,04,10,11,01,7.30
2010,04,10,11,02,7.30
2010,04,10,11,03,7.30
2010,04,10,11,04,7.30
2010,04,10,11,05,7.30
2010,04,10,11,06,7.30
2010,04,10,11,07,7.30
2010,04,10,11,08,7.30
2010,04,10,11,09,7.30
2010,04,10,11,10,7.30
2010,04,10,11,11,7.30
2010,04,10,11,12,7.30
2010,04,10,11,13,7.30
2010,04,10,11,14,7.40
2010,04,10,11,15,7.50
2010,04,10,11,16,7.60
2010,04,10,11,17,7.60
2010,04,10,11,18,7.70
2010,04,10,11,19,7.80
2010,04,10,11,20,7.80
2010,04,10,11,21,7.80
2010,04,10,11,22,7.90
2010,04,10,11,23,7.90
2010,04,10,11,24,7.90
2010,04,10,11,25,8.00
2010,04,10,11,26,8.00
2010,04,10,11,27,8.00
2010,04,10,11,28,8.10
2010,04,10,11,29,8.10
2010,04,10,11,30,8.20
2010,04,10,11,31,8.30
2010,04,10,11,32,8.30
2010,04,10,11,33,8.40
2010,04,10,11,34,8.40
2010,04,10,11,35,8.50
2010,04,10,11,36,8.60
2010,04,10,11,37,8.60
2010,04,10,11,38,8.60
2010,04,10,11,39,8.50
2010,04,10,11,40,8.40
2010,04,10,11,41,8.30
2010,04,10,11,42,8.30
2010,04,10,11,43,8.30
2010,04,10,11,44,8.40
2010,04,10,11,45,8.50
2010,04,10,11,46,8.50
2010,04,10,11,47,8.50
2010,04,10,11,48,8.50
2010,04,10,11,49,8.40
2010,04,10,11,50,8.30
2010,04,10,11,51,8.20
2010,04,10,11,52,8.20
2010,04,10,11,53,8.10
2010,04,10,11,54,8.00
2010,04,10,11,55,8.00
2010,04,10,11,56,8.00
2010,04,10,11,57,8.10
2010,04,10,11,58,8.10
2010,04,10,11,59,8.10
2010,04,10,12,00,8.20
2010,04,10,12,01,8.20
2010,04,10,12,02,8.30
2010,04,10,12,03,8.40
2010,04,10,12,04,8.40
2010,04,10,12,05,8.40
2010,04,10,12,06,8.50
2010,04,10,12,07,8.50
2010,04,10,12,08,8.50
2010,04,10,12,09,8.50
2010,04,10,12,10,8.50
2010,04,10,12,11,8.50
2010,04,10,12,12,8.50
2010,04,10,12,13,8.50
2010,04,10,12,14,8.40
2010,04,10,12,15,8.50
2010,04,10,12,16,8.60
2010,04,10,12,17,8.70
2010,04,10,12,18,8.60
2010,04,10,12,19,8.70
2010,04,10,12,20,8.70
2010,04,10,12,21,8.70
2010,04,10,12,22,8.70
2010,04,10,12,23,8.70
2010,04,10,12,24,8.70
2010,04,10,12,25,8.70
2010,04,10,12,26,8.70
2010,04,10,12,27,8.70
2010,04,10,12,28,8.60
2010,04,10,12,29,8.70
2010,04,10,12,30,8.70
2010,04,10,12,31,8.70
2010,04,10,12,32,8.70
2010,04,10,12,33,8.80
2010,04,10,12,34,8.80
2010,04,10,12,35,8.90
2010,04,10,12,36,8.80
2010,04,10,12,37,8.80
2010,04,10,12,38,8.80
2010,04,10,12,39,8.80
2010,04,10,12,40,8.80
2010,04,10,12,41,8.80
2010,04,10,12,42,8.90
2010,04,10,12,43,8.90
2010,04,10,12,44,8.90
2010,04,10,12,45,9.00
2010,04,10,12,46,9.00
2010,04,10,12,47,9.10
2010,04,10,12,48,9.00
2010,04,10,12,49,9.00
2010,04,10,12,50,9.10
2010,04,10,12,51,9.20
2010,04,10,12,52,9.20
2010,04,10,12,53,9.20
2010,04,10,12,54,9.10
2010,04,10,12,55,9.20
2010,04,10,12,56,9.20
2010,04,10,12,57,9.20
2010,04,10,12,58,9.30
2010,04,10,12,59,9.40
2010,04,10,13,00,9.50
2010,04,10,13,01,9.50
2010,04,10,13,02,9.60
2010,04,10,13,03,9.70
2010,04,10,13,04,9.70
2010,04,10,13,05,9.70
2010,04,10,13,06,9.60
2010,04,10,13,07,9.50
2010,04,10,13,08,9.50
2010,04,10,13,09,9.60
2010,04,10,13,10,9.70
2010,04,10,13,11,9.70
2010,04,10,13,12,9.80
2010,04,10,13,13,9.90
2010,04,10,13,14,10.10
2010,04,10,13,15,10.10
2010,04,10,13,16,10.10
2010,04,10,13,17,10.20
2010,04,10,13,18,10.20
2010,04,10,13,19,10.00
2010,04,10,13,20,9.90
2010,04,10,13,21,9.90
2010,04,10,13,22,9.90
2010,04,10,13,23,9.80
2010,04,10,13,24,9.80
2010,04,10,13,25,9.80
2010,04,10,13,26,9.80
2010,04,10,13,27,9.70
2010,04,10,13,28,9.70
2010,04,10,13,29,9.70
2010,04,10,13,30,9.70
2010,04,10,13,31,9.70
2010,04,10,13,32,9.70
2010,04,10,13,33,9.70
2010,04,10,13,34,9.80
2010,04,10,13,35,9.80
2010,04,10,13,36,9.90
2010,04,10,13,37,10.00
2010,04,10,13,38,10.10
2010,04,10,13,39,10.10
2010,04,10,13,40,10.20
2010,04,10,13,41,10.20
2010,04,10,13,42,10.30
2010,04,10,13,43,10.40
2010,04,10,13,44,10.40
2010,04,10,13,45,10.50
2010,04,10,13,46,10.60
2010,04,10,13,47,10.60
2010,04,10,13,48,10.60
2010,04,10,13,49,10.60
2010,04,10,13,50,10.60
2010,04,10,13,51,10.60
2010,04,10,13,52,10.50
2010,04,10,13,53,10.50
2010,04,10,13,54,10.60
2010,04,10,13,55,10.60
2010,04,10,13,56,10.60
2010,04,10,13,57,10.60
2010,04,10,13,58,10.70
2010,04,10,13,59,10.80
2010,04,10,14,00,10.90
2010,04,10,14,01,10.90
2010,04,10,14,02,10.80
2010,04,10,14,03,10.70
2010,04,10,14,04,10.70
2010,04,10,14,05,10.70
2010,04,10,14,06,10.80
2010,04,10,14,07,10.80
2010,04,10,14,08,10.70
2010,04,10,14,09,10.60
2010,04,10,14,10,10.60
2010,04,10,14,11,10.60
2010,04,10,14,12,10.60
2010,04,10,14,13,10.70
2010,04,10,14,14,10.70
2010,04,10,14,15,10.70
2010,04,10,14,16,10.70
2010,04,10,14,17,10.70
2010,04,10,14,18,10.70
2010,04,10,14,19,10.70
2010,04,10,14,20,10.70
2010,04,10,14,21,10.60
2010,04,10,14,22,10.70
2010,04,10,14,23,10.80
2010,04,10,14,24,10.90
2010,04,10,14,25,10.90
2010,04,10,14,26,10.80
2010,04,10,14,27,10.60
2010,04,10,14,28,10.60
2010,04,10,14,29,10.60
2010,04,10,14,30,10.60
2010,04,10,14,31,10.60
2010,04,10,14,32,10.70
2010,04,10,14,33,10.80
2010,04,10,14,34,10.80
2010,04,10,14,35,10.90
2010,04,10,14,36,10.90
2010,04,10,14,37,10.90
2010,04,10,14,38,11.00
2010,04,10,14,39,11.10
2010,04,10,14,40,11.10
2010,04,10,14,41,11.10
2010,04,10,14,42,11.00
2010,04,10,14,43,10.90
2010,04,10,14,44,11.00
2010,04,10,14,45,11.10
2010,04,10,14,46,11.10
2010,04,10,14,47,10.90
2010,04,10,14,48,10.90
2010,04,10,14,49,10.90
2010,04,10,14,50,10.80
2010,04,10,14,51,10.80
2010,04,10,14,52,10.90
2010,04,10,14,53,10.90
2010,04,10,14,54,11.10
2010,04,10,14,55,11.10
2010,04,10,14,56,11.20
2010,04,10,14,57,11.20
2010,04,10,14,58,11.10
2010,04,10,14,59,11.20
2010,04,10,15,00,11.10
2010,04,10,15,01,11.10
2010,04,10,15,02,11.10
2010,04,10,15,03,11.10
2010,04,10,15,04,11.10
2010,04,10,15,05,11.20
2010,04,10,15,06,11.30
2010,04,10,15,07,11.40
2010,04,10,15,08,11.40
2010,04,10,15,09,11.40
2010,04,10,15,10,11.40
2010,04,10,15,11,11.40
2010,04,10,15,12,11.30
2010,04,10,15,13,11.30
2010,04,10,15,14,11.30
2010,04,10,15,15,11.40
2010,04,10,15,16,11.40
2010,04,10,15,17,11.40
2010,04,10,15,18,11.40
2010,04,10,15,19,11.60
2010,04,10,15,20,11.60
2010,04,10,15,21,11.60
2010,04,10,15,22,11.60
2010,04,10,15,23,11.60
2010,04,10,15,24,11.60
2010,04,10,15,25,11.60
2010,04,10,15,26,11.60
2010,04,10,15,27,11.60
2010,04,10,15,28,11.50
2010,04,10,15,29,11.40
2010,04,10,15,30,11.40
2010,04,10,15,31,11.40
2010,04,10,15,32,11.30
2010,04,10,15,33,11.20
2010,04,10,15,34,11.20
2010,04,10,15,35,11.30
2010,04,10,15,36,11.40
2010,04,10,15,37,11.50
2010,04,10,15,38,11.60
2010,04,10,15,39,11.40
2010,04,10,15,40,11.40
2010,04,10,15,41,11.40
2010,04,10,15,42,11.40
2010,04,10,15,43,11.40
2010,04,10,15,44,11.40
2010,04,10,15,45,11.40
2010,04,10,15,46,11.40
2010,04,10,15,47,11.40
2010,04,10,15,48,11.40
2010,04,10,15,49,11.40
2010,04,10,15,50,11.40
2010,04,10,15,51,11.60
2010,04,10,15,52,11.60
2010,04,10,15,53,11.70
2010,04,10,15,54,11.80
2010,04,10,15,55,11.80
2010,04,10,15,56,11.80
2010,04,10,15,57,11.80
2010,04,10,15,58,11.80
2010,04,10,15,59,11.80
2010,04,10,16,00,11.80
2010,04,10,16,01,11.70
2010,04,10,16,02,11.70
2010,04,10,16,03,11.70
2010,04,10,16,04,11.80
2010,04,10,16,05,11.70
2010,04,10,16,06,11.70
2010,04,10,16,07,11.70
2010,04,10,16,08,11.80
2010,04,10,16,09,11.80
2010,04,10,16,10,11.90
2010,04,10,16,11,11.90
2010,04,10,16,12,12.00
2010,04,10,16,13,12.10
2010,04,10,16,14,12.10
2010,04,10,16,15,12.20
2010,04,10,16,16,12.20
2010,04,10,16,17,12.10
2010,04,10,16,18,12.10
2010,04,10,16,19,12.10
2010,04,10,16,20,12.00
2010,04,10,16,21,11.90
2010,04,10,16,22,11.80
2010,04,10,16,23,11.80
2010,04,10,16,24,11.80
2010,04,10,16,25,11.80
2010,04,10,16,26,11.80
2010,04,10,16,27,11.80
2010,04,10,16,28,11.80
2010,04,10,16,29,11.80
2010,04,10,16,30,11.80
2010,04,10,16,31,11.90
2010,04,10,16,32,11.90
2010,04,10,16,33,12.00
2010,04,10,16,34,12.00
2010,04,10,16,35,12.00
2010,04,10,16,36,11.90
2010,04,10,16,37,11.90
2010,04,10,16,38,11.90
2010,04,10,16,39,12.00
2010,04,10,16,40,12.00
2010,04,10,16,41,12.10
2010,04,10,16,42,12.10
2010,04,10,16,43,12.20
2010,04,10,16,44,12.20
2010,04,10,16,45,12.10
2010,04,10,16,46,12.00
2010,04,10,16,47,12.00
2010,04,10,16,48,12.10
2010,04,10,16,49,12.10
2010,04,10,16,50,12.10
2010,04,10,16,51,12.20
2010,04,10,16,52,12.30
2010,04,10,16,53,12.30
2010,04,10,16,54,12.30
2010,04,10,16,55,12.30
2010,04,10,16,56,12.30
2010,04,10,16,57,12.30
2010,04,10,16,58,12.30
2010,04,10,16,59,12.30
2010,04,10,17,00,12.30
2010,04,10,17,01,12.30
2010,04,10,17,02,12.30
2010,04,10,17,03,12.30
2010,04,10,17,04,12.20
2010,04,10,17,05,12.10
2010,04,10,17,06,12.10
2010,04,10,17,07,12.10
2010,04,10,17,08,12.20
2010,04,10,17,09,12.20
2010,04,10,17,10,12.30
2010,04,10,17,11,12.30
2010,04,10,17,12,12.30
2010,04,10,17,13,12.20
2010,04,10,17,14,12.10
2010,04,10,17,15,12.10
2010,04,10,17,16,12.10
2010,04,10,17,17,12.00
2010,04,10,17,18,12.00
2010,04,10,17,19,12.00
2010,04,10,17,20,12.00
2010,04,10,17,21,12.00
2010,04,10,17,22,12.00
2010,04,10,17,23,12.00
2010,04,10,17,24,12.00
2010,04,10,17,25,11.90
2010,04,10,17,26,12.00
2010,04,10,17,27,11.90
2010,04,10,17,28,12.00
2010,04,10,17,29,12.00
2010,04,10,17,30,11.90
2010,04,10,17,31,11.90
2010,04,10,17,32,11.80
2010,04,10,17,33,11.90
2010,04,10,17,34,11.90
2010,04,10,17,35,11.90
2010,04,10,17,36,12.00
2010,04,10,17,37,12.00
2010,04,10,17,38,12.00
2010,04,10,17,39,12.00
2010,04,10,17,40,12.00
2010,04,10,17,41,12.00
2010,04,10,17,42,11.90
2010,04,10,17,43,11.90
2010,04,10,17,44,11.90
2010,04,10,17,45,11.90
2010,04,10,17,46,11.90
2010,04,10,17,47,11.90
2010,04,10,17,48,11.90
2010,04,10,17,49,11.90
2010,04,10,17,50,12.00
2010,04,10,17,51,12.00
2010,04,10,17,52,12.00
2010,04,10,17,53,12.00
2010,04,10,17,54,12.00